Overview Statistics Trail Chart Weather Telemetry Raw packets
 

This is the latest recevied weather packets stored in our database for station/object OK2JV-13. If no packets are shown the sender has not sent any weather packets the latest 10 day(s).

<< 20 21 22 23 24 25 26 >>
Time Temp. Humidity Pressure Rain* Wind** Luminosity Snow
1788167376 18.89° C 71% 1013.4 hPa - - - -
1788166771 18.33° C 72% 1013.2 hPa - - - -
1788166166 18.33° C 73% 1013.1 hPa - - - -
1788165562 18.33° C 73% 1013.3 hPa - - - -
1788164958 18.33° C 72% 1012.9 hPa - - - -
1788164354 18.33° C 73% 1013.2 hPa - - - -
1788163750 18.33° C 71% 1013.3 hPa - - - -
1788163146 18.33° C 71% 1013.5 hPa - - - -
1788162542 18.89° C 69% 1013.3 hPa - - - -
1788161936 18.89° C 67% 1013.1 hPa - - - -
1788161332 18.89° C 66% 1012.7 hPa - - - -
1788159520 18.89° C 64% 1012.7 hPa - - - -
1788158916 18.89° C 65% 1012.8 hPa - - - -
1788158312 18.89° C 65% 1012.8 hPa - - - -
1788157708 18.89° C 66% 1012.6 hPa - - - -
1788157104 18.33° C 68% 1012.7 hPa - - - -
1788156502 18.33° C 70% 1012.7 hPa - - - -
1788155895 17.78° C 72% 1012.6 hPa - - - -
1788155291 17.78° C 73% 1012.9 hPa - - - -
1788154704 17.22° C 78% 1012.7 hPa - - - -
1788154084 17.22° C 80% 1012.7 hPa - - - -
1788153480 17.22° C 78% 1012.8 hPa - - - -
1788152876 16.67° C 77% 1012.9 hPa - - - -
1788152274 16.67° C 76% 1013.1 hPa - - - -
1788151670 17.22° C 75% 1013.3 hPa - - - -

* Rain since midnight (hover to see other rain measurements)
** Current wind speed in m/s (hover to see current wind gust speed)